﻿測定場所 (Monitoring sites),日付 (Measurement date),時間 (Measurement time),線量率 最大値 (max) μGy/h,線量率 最小値 (min) μGy/h,線量率 平均値 (average) μGy/h,
江東 (Koto),2018-01-28,23:01～24:00,0.0376,0.0331,0.0357,
江東 (Koto),2018-01-28,22:01～23:00,0.0379,0.0341,0.0359,
江東 (Koto),2018-01-28,21:01～22:00,0.0373,0.0337,0.0358,
江東 (Koto),2018-01-28,20:01～21:00,0.0386,0.0330,0.0358,
江東 (Koto),2018-01-28,19:01～20:00,0.0375,0.0337,0.0357,
江東 (Koto),2018-01-28,18:01～19:00,0.0379,0.0334,0.0359,
江東 (Koto),2018-01-28,17:01～18:00,0.0378,0.0334,0.0356,
江東 (Koto),2018-01-28,16:01～17:00,0.0374,0.0325,0.0354,
江東 (Koto),2018-01-28,15:01～16:00,0.0376,0.0336,0.0356,
江東 (Koto),2018-01-28,14:01～15:00,0.0386,0.0342,0.0354,
江東 (Koto),2018-01-28,13:01～14:00,0.0391,0.0335,0.0357,
江東 (Koto),2018-01-28,12:01～13:00,0.0375,0.0339,0.0356,
江東 (Koto),2018-01-28,11:01～12:00,0.0375,0.0340,0.0357,
江東 (Koto),2018-01-28,10:01～11:00,0.0383,0.0336,0.0356,
江東 (Koto),2018-01-28,09:01～10:00,0.0380,0.0329,0.0356,
江東 (Koto),2018-01-28,08:01～09:00,0.0376,0.0329,0.0354,
江東 (Koto),2018-01-28,07:01～08:00,0.0382,0.0335,0.0353,
江東 (Koto),2018-01-28,06:01～07:00,0.0380,0.0333,0.0354,
江東 (Koto),2018-01-28,05:01～06:00,0.0383,0.0331,0.0354,
江東 (Koto),2018-01-28,04:01～05:00,0.0380,0.0336,0.0356,
江東 (Koto),2018-01-28,03:01～04:00,0.0371,0.0332,0.0355,
江東 (Koto),2018-01-28,02:01～03:00,0.0379,0.0338,0.0355,
江東 (Koto),2018-01-28,01:01～02:00,0.0377,0.0334,0.0357,
江東 (Koto),2018-01-28,00:01～01:00,0.0374,0.0332,0.0355,
江東 (Koto),2018-01-27,23:01～24:00,0.0380,0.0330,0.0354,
江東 (Koto),2018-01-27,22:01～23:00,0.0379,0.0337,0.0354,
江東 (Koto),2018-01-27,21:01～22:00,0.0375,0.0333,0.0354,
江東 (Koto),2018-01-27,20:01～21:00,0.0377,0.0333,0.0353,
江東 (Koto),2018-01-27,19:01～20:00,0.0378,0.0330,0.0356,
江東 (Koto),2018-01-27,18:01～19:00,0.0387,0.0341,0.0357,
江東 (Koto),2018-01-27,17:01～18:00,0.0370,0.0336,0.0353,
江東 (Koto),2018-01-27,16:01～17:00,0.0377,0.0331,0.0354,
江東 (Koto),2018-01-27,15:01～16:00,0.0378,0.0334,0.0356,
江東 (Koto),2018-01-27,14:01～15:00,0.0378,0.0334,0.0354,
江東 (Koto),2018-01-27,13:01～14:00,0.0377,0.0335,0.0359,
江東 (Koto),2018-01-27,12:01～13:00,0.0380,0.0342,0.0357,
江東 (Koto),2018-01-27,11:01～12:00,0.0380,0.0331,0.0356,
江東 (Koto),2018-01-27,10:01～11:00,0.0388,0.0331,0.0357,
江東 (Koto),2018-01-27,09:01～10:00,0.0382,0.0333,0.0357,
江東 (Koto),2018-01-27,08:01～09:00,0.0389,0.0340,0.0360,
江東 (Koto),2018-01-27,07:01～08:00,0.0389,0.0330,0.0359,
江東 (Koto),2018-01-27,06:01～07:00,0.0389,0.0332,0.0358,
江東 (Koto),2018-01-27,05:01～06:00,0.0383,0.0335,0.0358,
江東 (Koto),2018-01-27,04:01～05:00,0.0385,0.0331,0.0357,
江東 (Koto),2018-01-27,03:01～04:00,0.0380,0.0335,0.0358,
江東 (Koto),2018-01-27,02:01～03:00,0.0378,0.0333,0.0356,
江東 (Koto),2018-01-27,01:01～02:00,0.0377,0.0341,0.0360,
江東 (Koto),2018-01-27,00:01～01:00,0.0381,0.0343,0.0359,
江東 (Koto),2018-01-26,23:01～24:00,0.0378,0.0337,0.0357,
江東 (Koto),2018-01-26,22:01～23:00,0.0378,0.0335,0.0356,
江東 (Koto),2018-01-26,21:01～22:00,0.0377,0.0332,0.0356,
江東 (Koto),2018-01-26,20:01～21:00,0.0382,0.0336,0.0358,
江東 (Koto),2018-01-26,19:01～20:00,0.0377,0.0336,0.0356,
江東 (Koto),2018-01-26,18:01～19:00,0.0382,0.0334,0.0356,
江東 (Koto),2018-01-26,17:01～18:00,0.0389,0.0341,0.0356,
江東 (Koto),2018-01-26,16:01～17:00,0.0378,0.0332,0.0354,
江東 (Koto),2018-01-26,15:01～16:00,0.0379,0.0338,0.0356,
江東 (Koto),2018-01-26,14:01～15:00,0.0379,0.0333,0.0356,
江東 (Koto),2018-01-26,13:01～14:00,0.0379,0.0336,0.0356,
江東 (Koto),2018-01-26,12:01～13:00,0.0379,0.0334,0.0355,
江東 (Koto),2018-01-26,11:01～12:00,0.0388,0.0344,0.0358,
江東 (Koto),2018-01-26,10:01～11:00,0.0377,0.0337,0.0354,
江東 (Koto),2018-01-26,09:01～10:00,0.0388,0.0333,0.0356,
江東 (Koto),2018-01-26,08:01～09:00,0.0384,0.0336,0.0358,
江東 (Koto),2018-01-26,07:01～08:00,0.0379,0.0339,0.0356,
江東 (Koto),2018-01-26,06:01～07:00,0.0389,0.0339,0.0358,
江東 (Koto),2018-01-26,05:01～06:00,0.0383,0.0327,0.0358,
江東 (Koto),2018-01-26,04:01～05:00,0.0385,0.0331,0.0356,
江東 (Koto),2018-01-26,03:01～04:00,0.0376,0.0338,0.0357,
江東 (Koto),2018-01-26,02:01～03:00,0.0384,0.0327,0.0355,
江東 (Koto),2018-01-26,01:01～02:00,0.0378,0.0332,0.0356,
江東 (Koto),2018-01-26,00:01～01:00,0.0378,0.0330,0.0358,
江東 (Koto),2018-01-25,23:01～24:00,0.0376,0.0329,0.0354,
江東 (Koto),2018-01-25,22:01～23:00,0.0378,0.0334,0.0356,
江東 (Koto),2018-01-25,21:01～22:00,0.0373,0.0335,0.0355,
江東 (Koto),2018-01-25,20:01～21:00,0.0380,0.0331,0.0357,
江東 (Koto),2018-01-25,19:01～20:00,0.0383,0.0339,0.0356,
江東 (Koto),2018-01-25,18:01～19:00,0.0372,0.0331,0.0355,
江東 (Koto),2018-01-25,17:01～18:00,0.0380,0.0342,0.0357,
江東 (Koto),2018-01-25,16:01～17:00,0.0379,0.0335,0.0354,
江東 (Koto),2018-01-25,15:01～16:00,0.0384,0.0337,0.0357,
江東 (Koto),2018-01-25,14:01～15:00,0.0387,0.0333,0.0358,
江東 (Koto),2018-01-25,13:01～14:00,0.0383,0.0335,0.0358,
江東 (Koto),2018-01-25,12:01～13:00,0.0371,0.0342,0.0357,
江東 (Koto),2018-01-25,11:01～12:00,0.0384,0.0342,0.0358,
江東 (Koto),2018-01-25,10:01～11:00,0.0381,0.0337,0.0356,
江東 (Koto),2018-01-25,09:01～10:00,0.0384,0.0333,0.0357,
江東 (Koto),2018-01-25,08:01～09:00,0.0379,0.0334,0.0357,
江東 (Koto),2018-01-25,07:01～08:00,0.0378,0.0338,0.0357,
江東 (Koto),2018-01-25,06:01～07:00,0.0380,0.0341,0.0360,
江東 (Koto),2018-01-25,05:01～06:00,0.0384,0.0338,0.0358,
江東 (Koto),2018-01-25,04:01～05:00,0.0371,0.0338,0.0357,
江東 (Koto),2018-01-25,03:01～04:00,0.0381,0.0341,0.0359,
江東 (Koto),2018-01-25,02:01～03:00,0.0375,0.0337,0.0358,
江東 (Koto),2018-01-25,01:01～02:00,0.0383,0.0337,0.0358,
江東 (Koto),2018-01-25,00:01～01:00,0.0375,0.0338,0.0357,
江東 (Koto),2018-01-24,23:01～24:00,0.0388,0.0330,0.0360,
江東 (Koto),2018-01-24,22:01～23:00,0.0380,0.0340,0.0359,
江東 (Koto),2018-01-24,21:01～22:00,0.0378,0.0332,0.0358,
江東 (Koto),2018-01-24,20:01～21:00,0.0381,0.0339,0.0358,
江東 (Koto),2018-01-24,19:01～20:00,0.0376,0.0334,0.0354,
江東 (Koto),2018-01-24,18:01～19:00,0.0382,0.0328,0.0358,
江東 (Koto),2018-01-24,17:01～18:00,0.0382,0.0336,0.0357,
江東 (Koto),2018-01-24,16:01～17:00,0.0383,0.0335,0.0356,
江東 (Koto),2018-01-24,15:01～16:00,0.0380,0.0338,0.0356,
江東 (Koto),2018-01-24,14:01～15:00,0.0382,0.0338,0.0357,
江東 (Koto),2018-01-24,13:01～14:00,0.0376,0.0335,0.0354,
江東 (Koto),2018-01-24,12:01～13:00,0.0378,0.0334,0.0354,
江東 (Koto),2018-01-24,11:01～12:00,0.0375,0.0333,0.0354,
江東 (Koto),2018-01-24,10:01～11:00,0.0370,0.0335,0.0352,
江東 (Koto),2018-01-24,09:01～10:00,0.0371,0.0334,0.0351,
江東 (Koto),2018-01-24,08:01～09:00,0.0380,0.0330,0.0355,
江東 (Koto),2018-01-24,07:01～08:00,0.0369,0.0332,0.0354,
江東 (Koto),2018-01-24,06:01～07:00,0.0378,0.0326,0.0352,
江東 (Koto),2018-01-24,05:01～06:00,0.0388,0.0337,0.0357,
江東 (Koto),2018-01-24,04:01～05:00,0.0380,0.0325,0.0355,
江東 (Koto),2018-01-24,03:01～04:00,0.0373,0.0329,0.0352,
江東 (Koto),2018-01-24,02:01～03:00,0.0375,0.0326,0.0352,
江東 (Koto),2018-01-24,01:01～02:00,0.0383,0.0329,0.0354,
江東 (Koto),2018-01-24,00:01～01:00,0.0377,0.0335,0.0353,
江東 (Koto),2018-01-23,23:01～24:00,0.0377,0.0337,0.0357,
江東 (Koto),2018-01-23,22:01～23:00,0.0376,0.0332,0.0355,
江東 (Koto),2018-01-23,21:01～22:00,0.0372,0.0336,0.0354,
江東 (Koto),2018-01-23,20:01～21:00,0.0372,0.0331,0.0352,
江東 (Koto),2018-01-23,19:01～20:00,0.0378,0.0320,0.0354,
江東 (Koto),2018-01-23,18:01～19:00,0.0378,0.0334,0.0355,
江東 (Koto),2018-01-23,17:01～18:00,0.0375,0.0332,0.0355,
江東 (Koto),2018-01-23,16:01～17:00,0.0376,0.0332,0.0356,
江東 (Koto),2018-01-23,15:01～16:00,0.0379,0.0335,0.0353,
江東 (Koto),2018-01-23,14:01～15:00,0.0382,0.0328,0.0354,
江東 (Koto),2018-01-23,13:01～14:00,0.0373,0.0327,0.0355,
江東 (Koto),2018-01-23,12:01～13:00,0.0370,0.0328,0.0349,
江東 (Koto),2018-01-23,11:01～12:00,0.0369,0.0326,0.0349,
江東 (Koto),2018-01-23,10:01～11:00,0.0368,0.0319,0.0342,
江東 (Koto),2018-01-23,09:01～10:00,0.0369,0.0318,0.0338,
江東 (Koto),2018-01-23,08:01～09:00,0.0362,0.0324,0.0338,
江東 (Koto),2018-01-23,07:01～08:00,0.0361,0.0314,0.0336,
江東 (Koto),2018-01-23,06:01～07:00,0.0354,0.0323,0.0338,
江東 (Koto),2018-01-23,05:01～06:00,0.0360,0.0318,0.0336,
江東 (Koto),2018-01-23,04:01～05:00,0.0359,0.0310,0.0336,
江東 (Koto),2018-01-23,03:01～04:00,0.0349,0.0312,0.0334,
江東 (Koto),2018-01-23,02:01～03:00,0.0350,0.0315,0.0334,
江東 (Koto),2018-01-23,01:01～02:00,0.0364,0.0316,0.0338,
江東 (Koto),2018-01-23,00:01～01:00,0.0387,0.0338,0.0355,
江東 (Koto),2018-01-22,23:01～24:00,0.0408,0.0358,0.0380,
江東 (Koto),2018-01-22,22:01～23:00,0.0433,0.0370,0.0397,
江東 (Koto),2018-01-22,21:01～22:00,0.0475,0.0397,0.0434,
江東 (Koto),2018-01-22,20:01～21:00,0.0474,0.0423,0.0448,
江東 (Koto),2018-01-22,19:01～20:00,0.0484,0.0434,0.0460,
江東 (Koto),2018-01-22,18:01～19:00,0.0477,0.0426,0.0446,
江東 (Koto),2018-01-22,17:01～18:00,0.0478,0.0404,0.0438,
江東 (Koto),2018-01-22,16:01～17:00,0.0465,0.0396,0.0429,
江東 (Koto),2018-01-22,15:01～16:00,0.0446,0.0390,0.0420,
江東 (Koto),2018-01-22,14:01～15:00,0.0449,0.0385,0.0412,
江東 (Koto),2018-01-22,13:01～14:00,0.0436,0.0346,0.0380,
江東 (Koto),2018-01-22,12:01～13:00,0.0395,0.0346,0.0369,
江東 (Koto),2018-01-22,11:01～12:00,0.0405,0.0360,0.0382,
江東 (Koto),2018-01-22,10:01～11:00,0.0403,0.0361,0.0385,
江東 (Koto),2018-01-22,09:01～10:00,0.0400,0.0351,0.0377,
江東 (Koto),2018-01-22,08:01～09:00,0.0401,0.0346,0.0377,
江東 (Koto),2018-01-22,07:01～08:00,0.0385,0.0338,0.0358,
江東 (Koto),2018-01-22,06:01～07:00,0.0380,0.0336,0.0358,
江東 (Koto),2018-01-22,05:01～06:00,0.0381,0.0340,0.0358,
江東 (Koto),2018-01-22,04:01～05:00,0.0385,0.0335,0.0357,
江東 (Koto),2018-01-22,03:01～04:00,0.0380,0.0342,0.0359,
江東 (Koto),2018-01-22,02:01～03:00,0.0375,0.0339,0.0357,
江東 (Koto),2018-01-22,01:01～02:00,0.0374,0.0337,0.0358,
江東 (Koto),2018-01-22,00:01～01:00,0.0378,0.0339,0.0358,
